| time (UTC) | temp F | wind direction | speed MPH | gust MPH | rain 1hr in | rain 24hr in | rain mn in | humidity % | barometer mb |
| 20260901172946 | 86 | 324 | 1.0 | 4.0 | 0.00 | 0.00 | 0.00 | 76 | 1015.3 |
| 20260901171446 | 85 | 299 | 1.0 | 5.0 | 0.00 | 0.00 | 0.00 | 78 | 1015.5 |
| 20260901165948 | 84 | 262 | 2.0 | 5.0 | 0.00 | 0.00 | 0.00 | 77 | 1015.7 |
| 20260901164446 | 82 | 287 | 1.0 | 3.0 | 0.00 | 0.00 | 0.00 | 81 | 1016.0 |
| 20260901162946 | 82 | 308 | 0.0 | 2.0 | 0.00 | 0.00 | 0.00 | 82 | 1016.2 |
| 20260901155949 | 82 | 288 | 0.0 | 1.0 | 0.00 | 0.00 | 0.00 | 81 | 1016.3 |
| 20260901152946 | 83 | 298 | 0.0 | 3.0 | 0.00 | 0.00 | 0.00 | 78 | 1016.3 |
| 20260901151446 | 84 | 293 | 0.0 | 4.0 | 0.00 | 0.00 | 0.00 | 79 | 1016.3 |
| 20260901145949 | 84 | 330 | 0.0 | 3.0 | 0.00 | 0.00 | 0.00 | 79 | 1016.3 |
| 20260901142946 | 81 | 351 | 0.0 | 4.0 | 0.00 | 0.00 | 0.00 | 85 | 1016.4 |
| 20260901141446 | 79 | 297 | 1.0 | 6.0 | 0.00 | 0.00 | 0.00 | 86 | 1016.4 |
| 20260901135948 | 78 | 292 | 1.0 | 4.0 | 0.00 | 0.00 | 0.00 | 89 | 1016.7 |
| 20260901134446 | 77 | 311 | 0.0 | 2.0 | 0.00 | 0.00 | 0.00 | 91 | 1016.3 |
| 20260901132945 | 76 | 305 | 0.0 | 2.0 | 0.00 | 0.00 | 0.00 | 91 | 1016.2 |
| 20260901131446 | 76 | 316 | 0.0 | 2.0 | 0.00 | 0.00 | 0.00 | 92 | 1016.5 |
| 20260901125951 | 76 | 304 | 0.0 | 2.0 | 0.00 | 0.00 | 0.00 | 92 | 1016.4 |
| 20260901124445 | 76 | 304 | 0.0 | 2.0 | 0.00 | 0.00 | 0.00 | 93 | 1016.7 |
| 20260901122946 | 75 | 317 | 1.0 | 4.0 | 0.00 | 0.00 | 0.00 | 93 | 1016.6 |
| 20260901121446 | 74 | 316 | 1.0 | 2.0 | 0.00 | 0.00 | 0.00 | 95 | 1016.5 |
| 20260901114445 | 73 | 311 | 0.0 | 2.0 | 0.00 | 0.00 | 0.00 | 96 | 1016.8 |
| 20260901112946 | 73 | 343 | 1.0 | 3.0 | 0.00 | 0.00 | 0.00 | 96 | 1016.6 |
| 20260901111445 | 73 | 307 | 1.0 | 2.0 | 0.00 | 0.00 | 0.00 | 96 | 1016.6 |
| 20260901105949 | 72 | 305 | 0.0 | 1.0 | 0.00 | 0.00 | 0.00 | 97 | 1016.7 |
| 20260901104445 | 72 | 305 | 0.0 | 2.0 | 0.00 | 0.00 | 0.00 | 96 | 1016.4 |
| 20260901102946 | 72 | 334 | 0.0 | 1.0 | 0.00 | 0.00 | 0.00 | 96 | 1016.6 |
| 20260901101446 | 72 | 300 | 1.0 | 3.0 | 0.00 | 0.00 | 0.00 | 96 | 1016.3 |
| 20260901095949 | 72 | 298 | 0.0 | 2.0 | 0.00 | 0.00 | 0.00 | 96 | 1016.6 |
| 20260901092946 | 72 | 308 | 1.0 | 4.0 | 0.00 | 0.00 | 0.00 | 96 | 1016.5 |
| 20260901084445 | 72 | 304 | 0.0 | 2.0 | 0.00 | 0.00 | 0.00 | 96 | 1016.7 |
| 20260901082945 | 72 | 304 | 1.0 | 3.0 | 0.00 | 0.00 | 0.00 | 96 | 1016.8 |
| 20260901081446 | 72 | 313 | 1.0 | 3.0 | 0.00 | 0.00 | 0.00 | 96 | 1016.7 |
| 20260901075950 | 72 | 310 | 1.0 | 5.0 | 0.00 | 0.00 | 0.00 | 96 | 1016.7 |
| 20260901072945 | 72 | 297 | 1.0 | 3.0 | 0.00 | 0.00 | 0.00 | 95 | 1016.7 |
| 20260901071445 | 72 | 297 | 1.0 | 3.0 | 0.00 | 0.00 | 0.00 | 95 | 1016.7 |
| 20260901062945 | 72 | 304 | 0.0 | 3.0 | 0.00 | 0.00 | 0.00 | 94 | 1017.2 |
| 20260901061445 | 72 | 309 | 0.0 | 3.0 | 0.00 | 0.00 | 0.00 | 94 | 1017.4 |
| 20260901054446 | 73 | 289 | 0.0 | 1.0 | 0.00 | 0.00 | 0.00 | 93 | 1017.5 |
| 20260901052946 | 73 | 309 | 1.0 | 3.0 | 0.00 | 0.00 | 0.00 | 93 | 1017.7 |
| 20260901051446 | 73 | 322 | 0.0 | 2.0 | 0.00 | 0.00 | 0.00 | 92 | 1017.8 |
| 20260901045950 | 73 | 308 | 0.0 | 0.0 | 0.00 | 0.00 | 0.00 | 92 | 1018.0 |
| 20260901044448 | 72 | 318 | 0.0 | 0.0 | 0.00 | 0.00 | 0.00 | 91 | 1018.0 |
| 20260901042946 | 72 | 281 | 0.0 | 0.0 | 0.00 | 0.00 | 0.00 | 90 | 1018.1 |
| 20260901041447 | 73 | 278 | 0.0 | 0.0 | 0.00 | 0.00 | 0.00 | 89 | 1018.4 |
| 20260901035952 | 73 | 278 | 0.0 | 0.0 | 0.00 | 0.00 | 0.00 | 89 | 1018.3 |
| 20260901034446 | 73 | 277 | 0.0 | 0.0 | 0.00 | 0.00 | 0.00 | 88 | 1018.4 |
| 20260901031446 | 73 | 281 | 0.0 | 2.0 | 0.00 | 0.00 | 0.00 | 88 | 1018.3 |
| 20260901025949 | 73 | 294 | 0.0 | 2.0 | 0.00 | 0.00 | 0.00 | 88 | 1018.3 |
| 20260901024447 | 72 | 301 | 0.0 | 0.0 | 0.00 | 0.00 | 0.00 | 88 | 1018.5 |
| 20260901022947 | 73 | 259 | 0.0 | 1.0 | 0.00 | 0.00 | 0.00 | 88 | 1018.4 |
| 20260901021446 | 73 | 246 | 0.0 | 0.0 | 0.00 | 0.00 | 0.00 | 87 | 1018.5 |
| 20260901015950 | 73 | 284 | 0.0 | 3.0 | 0.00 | 0.00 | 0.00 | 87 | 1018.4 |
| 20260901012946 | 72 | 288 | 0.0 | 2.0 | 0.00 | 0.00 | 0.00 | 89 | 1018.2 |
| 20260901011447 | 73 | 254 | 0.0 | 1.0 | 0.00 | 0.00 | 0.00 | 88 | 1018.4 |
| 20260901005949 | 73 | 254 | 0.0 | 0.0 | 0.00 | 0.00 | 0.00 | 86 | 1018.4 |
| 20260901004447 | 74 | 282 | 1.0 | 3.0 | 0.00 | 0.00 | 0.00 | 86 | 1018.3 |
| 20260901002947 | 74 | 290 | 0.0 | 2.0 | 0.00 | 0.00 | 0.00 | 87 | 1018.1 |
| 20260901001446 | 74 | 246 | 0.0 | 1.0 | 0.00 | 0.00 | 0.00 | 88 | 1018.0 |
| 20260831235950 | 75 | 246 | 0.0 | 1.0 | 0.00 | 0.00 | 0.00 | 87 | 1017.9 |
| 20260831234448 | 75 | 240 | 0.0 | 1.0 | 0.00 | 0.00 | 0.00 | 86 | 1018.0 |
| 20260831232946 | 76 | 208 | 0.0 | 1.0 | 0.00 | 0.00 | 0.00 | 85 | 1018.0 |
| 20260831231447 | 77 | 224 | 0.0 | 1.0 | 0.00 | 0.00 | 0.00 | 83 | 1018.2 |
| 20260831225949 | 77 | 272 | 0.0 | 2.0 | 0.00 | 0.00 | 0.00 | 81 | 1018.3 |
| 20260831221447 | 79 | 264 | 0.0 | 1.0 | 0.00 | 0.00 | 0.00 | 79 | 1018.7 |
| 20260831215950 | 79 | 253 | 0.0 | 1.0 | 0.00 | 0.00 | 0.00 | 77 | 1018.7 |
| 20260831214446 | 80 | 176 | 1.0 | 3.0 | 0.00 | 0.00 | 0.00 | 77 | 1018.7 |
| 20260831212947 | 80 | 245 | 0.0 | 2.0 | 0.00 | 0.00 | 0.00 | 76 | 1018.7 |
| 20260831211446 | 81 | 265 | 1.0 | 3.0 | 0.00 | 0.00 | 0.00 | 73 | 1018.9 |
| 20260831205949 | 83 | 203 | 0.0 | 3.0 | 0.00 | 0.00 | 0.00 | 71 | 1018.9 |
| 20260831204447 | 84 | 255 | 1.0 | 3.0 | 0.00 | 0.00 | 0.00 | 68 | 1019.0 |
| 20260831202946 | 82 | 229 | 2.0 | 4.0 | 0.00 | 0.00 | 0.00 | 71 | 1019.0 |
| 20260831201447 | 81 | 135 | 1.0 | 2.0 | 0.00 | 0.00 | 0.00 | 72 | 1019.2 |
| 20260831195951 | 81 | 279 | 1.0 | 3.0 | 0.00 | 0.00 | 0.00 | 72 | 1019.2 |
| 20260831194447 | 80 | 219 | 1.0 | 2.0 | 0.00 | 0.00 | 0.00 | 74 | 1019.3 |
| 20260831192946 | 80 | 124 | 0.0 | 3.0 | 0.00 | 0.00 | 0.00 | 72 | 1019.6 |
| 20260831185950 | 81 | 202 | 2.0 | 6.0 | 0.00 | 0.00 | 0.00 | 71 | 1019.8 |
| 20260831184446 | 82 | 296 | 0.0 | 2.0 | 0.00 | 0.00 | 0.00 | 71 | 1019.8 |
| 20260831182947 | 82 | 158 | 2.0 | 5.0 | 0.00 | 0.00 | 0.00 | 70 | 1019.9 |
| 20260831181446 | 81 | 261 | 1.0 | 4.0 | 0.00 | 0.00 | 0.00 | 70 | 1019.8 |
| 20260831175950 | 81 | 153 | 1.0 | 3.0 | 0.00 | 0.00 | 0.00 | 72 | 1019.9 |
| 20260831174446 | 80 | 216 | 1.0 | 5.0 | 0.00 | 0.00 | 0.00 | 70 | 1020.1 |